Elkins, WV

3:03 PM EDT on March 26, 2017 (GMT -0400)
Elkins-Randolph County

Weather History for KEKN - December, 2011

Change the Weather History Date:

Monday, December 26, 2011

  Actual Average Record
Temperature  
Mean Temperature 36 °F 30 °F  
Max Temperature 44 °F 40 °F 65 °F (2015)
Min Temperature 27 °F 20 °F -11 °F (1980)
Degree Days  
Heating Degree Days 29 35  
Month to date heating degree days 717 833  
Since 1 July heating degree days 1819 2117  
Cooling Degree Days 0 0  
Month to date cooling degree days 0 0  
Year to date cooling degree days 699 475  
Moisture  
Dew Point 23 °F    
Average Humidity 63    
Maximum Humidity 85    
Minimum Humidity 40    
Precipitation  
Precipitation 0.00 in 0.09 in 0.99 in (1930)
Month to date precipitation 3.00 2.77  
Year to date precipitation 51.59 45.44  
Snow  
Snow 0.00 in - - ()
Month to date snowfall 4.7  
Since 1 September snowfall 6.3  
Snow Depth 0.00 in    
Sea Level Pressure  
Sea Level Pressure 30.30 in    
Wind  
Wind Speed 4 mph (West)    
Max Wind Speed 18 mph    
Max Gust Speed 25 mph    
Visibility 10 miles    
Events      
T = Trace of Precipitation, MM = Missing Value Source: NWS Daily Summary

Daily Weather History Graph

Daily Weather History Graph

Search for Another Location

Airport or City:

Trip Planner

Search our weather history database for the weather conditions in past years. The results will help you decide how hot, cold, wet, or windy it might be!

Date:

Astronomy

Dec. 26, 2011 Rise Set
Actual Time 7:36 AM EST 5:03 PM EST
Civil Twilight 7:06 AM EST 5:33 PM EST
Nautical Twilight 6:33 AM EST 6:06 PM EST
Astronomical Twilight 6:00 AM EST 6:39 PM EST
Moon 8:56 AM EST 7:28 PM EST
Length of Visible Light 10h 26m
Length of Day
9h 27m
Waxing Crescent, 5% of the Moon is Illuminated
Dec 26
Waxing Crescent
Jan 1
First Quarter
Jan 9
Full
Jan 16
Last Quarter
Jan 23
New

Hourly Weather History & Observations

Time (EST) Temp. Windchill Dew Point Humidity Pressure Visibility Wind Dir Wind Speed Gust Speed Precip Events Conditions
12:51 AM 37.4 °F 31.4 °F 24.8 °F 60% 30.18 in 10.0 mi West 8.1 mph 16.1 mph N/A   Overcast
1:51 AM 36.0 °F 27.5 °F 24.1 °F 62% 30.26 in 10.0 mi West 12.7 mph 16.1 mph N/A   Overcast
2:51 AM 35.1 °F 27.4 °F 23.0 °F 61% 30.30 in 10.0 mi NW 10.4 mph - N/A   Overcast
3:51 AM 34.0 °F 27.2 °F 21.9 °F 61% 30.30 in 10.0 mi WNW 8.1 mph 18.4 mph N/A   Overcast
4:51 AM 34.0 °F 26.0 °F 21.9 °F 61% 30.31 in 10.0 mi West 10.4 mph - N/A   Overcast
5:51 AM 33.1 °F 26.9 °F 21.0 °F 61% 30.31 in 10.0 mi West 6.9 mph - N/A   Scattered Clouds
6:51 AM 28.9 °F - 19.9 °F 69% 30.34 in 10.0 mi Calm Calm - N/A   Clear
7:51 AM 33.1 °F 24.9 °F 23.0 °F 66% 30.38 in 10.0 mi WNW 10.4 mph - N/A   Overcast
8:51 AM 33.1 °F 24.9 °F 23.0 °F 66% 30.41 in 10.0 mi NW 10.4 mph - N/A   Overcast
9:51 AM 34.0 °F 29.8 °F 24.1 °F 67% 30.43 in 10.0 mi WNW 4.6 mph - N/A   Overcast
10:51 AM 35.1 °F 32.2 °F 23.0 °F 61% 30.42 in 10.0 mi Variable 3.5 mph - N/A   Overcast
11:51 AM 37.9 °F 34.4 °F 24.1 °F 57% 30.40 in 10.0 mi WSW 4.6 mph - N/A   Overcast
12:20 PM 37.4 °F 32.8 °F 23.0 °F 56% 30.32 in 10.0 mi WNW 5.8 mph - N/A   Partly Cloudy
12:51 PM 37.0 °F - 23.0 °F 57% 30.38 in 10.0 mi Calm Calm - N/A   Scattered Clouds
1:51 PM 39.9 °F 37.8 °F 24.1 °F 53% 30.35 in 10.0 mi SW 3.5 mph - N/A   Clear
2:51 PM 42.1 °F - 23.0 °F 47% 30.32 in 10.0 mi Calm Calm - N/A   Clear
3:51 PM 44.1 °F - 21.9 °F 42% 30.29 in 10.0 mi Calm Calm - N/A   Clear
4:51 PM 36.0 °F - 24.1 °F 62% 30.29 in 10.0 mi Calm Calm - N/A   Clear
5:51 PM 30.9 °F - 24.1 °F 76% 30.27 in 10.0 mi Calm Calm - N/A   Clear
6:51 PM 28.9 °F - 24.1 °F 82% 30.26 in 10.0 mi Calm Calm - N/A   Clear
7:51 PM 28.0 °F - 24.1 °F 85% 30.25 in 10.0 mi Calm Calm - N/A   Clear
8:51 PM 28.0 °F - 24.1 °F 85% 30.23 in 10.0 mi Calm Calm - N/A   Clear
9:51 PM 30.0 °F - 26.1 °F 85% 30.18 in 10.0 mi Calm Calm - N/A   Clear
10:51 PM 30.9 °F - 25.0 °F 79% 30.14 in 10.0 mi Calm Calm - N/A   Clear
11:51 PM 30.9 °F - 26.1 °F 82% 30.11 in 10.0 mi Calm Calm - N/A   Clear